"read_dt","SO2 (ppb)","flags","PMT voltage (V)","lamp voltage (V)","lamp intensity (Hz)","internal temp (C)","react chamber temp (C)","sample flow (l/min)","pres (mmHg)","SO2 bkg (ppb)","SO2 coefficient"
2013-10-10 00:00:00,1956E-4,5C000000,-0724,0959,10925,028.3,045.4,0.389,732.2,01.19,0.508
2013-10-10 00:01:00,1823E-4,5C000000,-0724,0957,10986,028.3,045.4,0.390,732.2,01.19,0.508
2013-10-10 00:02:00,1609E-4,5C000000,-0724,0958,11048,028.3,045.4,0.389,732.2,01.19,0.508
2013-10-10 00:03:00,1751E-4,5C000000,-0724,0958,11019,028.3,045.4,0.390,732.1,01.19,0.508
2013-10-10 00:04:00,8675E-5,5C000000,-0724,0957,10843,028.3,045.4,0.389,732.2,01.19,0.508
2013-10-10 00:05:00,8758E-5,5C000000,-0724,0957,11056,028.3,045.4,0.390,732.2,01.19,0.508
2013-10-10 00:06:00,1701E-4,5C000000,-0724,0958,10939,028.3,045.4,0.390,732.1,01.19,0.508
2013-10-10 00:07:00,1982E-4,5C000000,-0724,0958,11044,028.3,045.4,0.389,732.1,01.19,0.508
2013-10-10 00:08:00,1870E-4,5C000000,-0724,0958,11077,028.3,045.4,0.390,732.2,01.19,0.508
2013-10-10 00:09:00,2828E-4,5C000000,-0724,0958,10802,028.3,045.4,0.389,732.2,01.19,0.508
2013-10-10 00:10:00,2949E-4,5C000000,-0724,0957,10987,028.3,045.4,0.390,732.1,01.19,0.508
2013-10-10 00:11:00,2445E-4,5C000000,-0724,0959,10913,028.2,045.3,0.390,732.2,01.19,0.508
2013-10-10 00:12:00,2152E-4,5C000000,-0724,0957,11071,028.2,045.4,0.390,732.2,01.19,0.508
2013-10-10 00:13:00,1113E-4,5C000000,-0724,0958,10879,028.2,045.4,0.390,732.2,01.19,0.508
2013-10-10 00:14:00,2545E-4,5C000000,-0724,0958,10825,028.2,045.4,0.389,732.2,01.19,0.508
2013-10-10 00:15:00,2426E-4,5C000000,-0724,0957,10829,028.2,045.4,0.390,732.2,01.19,0.508
2013-10-10 00:16:00,1392E-4,5C000000,-0724,0957,10897,028.3,045.4,0.389,732.2,01.19,0.508
2013-10-10 00:17:00,2146E-4,5C000000,-0724,0958,10926,028.3,045.4,0.390,732.2,01.19,0.508
2013-10-10 00:18:00,2067E-4,5C000000,-0724,0958,10930,028.3,045.3,0.389,732.2,01.19,0.508
2013-10-10 00:19:00,2716E-4,5C000000,-0724,0958,10932,028.2,045.3,0.390,732.1,01.19,0.508
2013-10-10 00:20:00,2046E-4,5C000000,-0724,0958,10936,028.2,045.4,0.390,732.1,01.19,0.508
2013-10-10 00:21:00,1638E-4,5C000000,-0724,0958,10983,028.3,045.4,0.390,732.2,01.19,0.508
2013-10-10 00:22:00,2410E-4,5C000000,-0724,0957,10884,028.2,045.4,0.390,732.2,01.19,0.508
2013-10-10 00:23:00,1841E-4,5C000000,-0724,0958,10924,028.2,045.4,0.389,732.2,01.19,0.508
2013-10-10 00:24:00,2147E-4,5C000000,-0724,0957,11002,028.2,045.4,0.390,732.2,01.19,0.508
2013-10-10 00:25:00,1179E-4,5C000000,-0724,0957,10992,028.2,045.4,0.389,732.1,01.19,0.508
2013-10-10 00:26:00,1846E-4,5C000000,-0724,0958,10934,028.2,045.4,0.390,732.1,01.19,0.508
2013-10-10 00:27:00,1749E-4,5C000000,-0724,0958,11048,028.2,045.4,0.390,732.2,01.19,0.508
2013-10-10 00:28:00,1543E-4,5C000000,-0724,0957,10974,028.2,045.4,0.390,732.1,01.19,0.508
2013-10-10 00:29:00,1841E-4,5C000000,-0724,0958,11026,028.2,045.4,0.390,732.2,01.19,0.508
2013-10-10 00:30:00,2083E-4,5C000000,-0724,0958,10876,028.3,045.4,0.389,732.1,01.19,0.508
2013-10-10 00:31:00,1224E-4,5C000000,-0724,0958,10833,028.2,045.4,0.390,732.2,01.19,0.508
2013-10-10 00:32:00,2062E-4,5C000000,-0724,0958,11100,028.2,045.4,0.389,732.1,01.19,0.508
2013-10-10 00:33:00,2340E-4,5C000000,-0724,0958,10892,028.2,045.4,0.390,732.2,01.19,0.508
2013-10-10 00:34:00,1066E-4,5C000000,-0724,0958,10861,028.2,045.4,0.389,732.0,01.19,0.508
2013-10-10 00:35:00,1484E-4,5C000000,-0724,0957,10941,028.2,045.4,0.390,732.0,01.19,0.508
2013-10-10 00:36:00,2110E-4,5C000000,-0724,0958,10990,028.2,045.4,0.390,732.2,01.19,0.508
2013-10-10 00:37:00,1970E-4,5C000000,-0724,0957,10934,028.2,045.3,0.390,732.2,01.19,0.508
2013-10-10 00:38:00,2561E-4,5C000000,-0724,0958,10870,028.2,045.4,0.390,732.2,01.19,0.508
2013-10-10 00:39:00,2797E-4,5C000000,-0724,0957,10949,028.2,045.3,0.389,732.3,01.19,0.508
2013-10-10 00:40:00,3615E-4,5C000000,-0724,0957,10883,028.2,045.4,0.390,732.1,01.19,0.508
2013-10-10 00:41:00,2380E-4,5C000000,-0724,0958,10974,028.2,045.3,0.389,732.2,01.19,0.508
2013-10-10 00:42:00,3121E-4,5C000000,-0724,0958,10874,028.2,045.3,0.390,732.3,01.19,0.508
2013-10-10 00:43:00,2129E-4,5C000000,-0724,0958,10888,028.2,045.4,0.390,732.2,01.19,0.508
2013-10-10 00:44:00,2079E-4,5C000000,-0724,0958,10907,028.2,045.3,0.390,732.3,01.19,0.508
2013-10-10 00:45:00,2999E-4,5C000000,-0724,0958,11030,028.2,045.4,0.390,732.2,01.19,0.508
2013-10-10 00:46:00,1132E-4,5C000000,-0724,0957,11009,028.2,045.4,0.390,732.3,01.19,0.508
2013-10-10 00:47:00,2831E-4,5C000000,-0724,0957,10914,028.2,045.3,0.390,732.3,01.19,0.508
2013-10-10 00:48:00,1492E-4,5C000000,-0724,0958,11057,028.2,045.4,0.389,732.1,01.19,0.508
2013-10-10 00:49:00,1679E-4,5C000000,-0724,0958,11031,028.2,045.3,0.390,732.3,01.19,0.508
2013-10-10 00:50:00,1046E-4,5C000000,-0724,0958,10917,028.2,045.3,0.390,732.2,01.19,0.508
2013-10-10 00:51:00,4366E-5,5C000000,-0724,0957,11019,028.2,045.4,0.390,732.3,01.19,0.508
2013-10-10 00:52:00,2564E-4,5C000000,-0724,0958,10974,028.2,045.4,0.390,732.4,01.19,0.508
2013-10-10 00:53:00,2102E-4,5C000000,-0724,0958,10985,028.2,045.4,0.390,732.2,01.19,0.508
2013-10-10 00:54:00,1851E-4,5C000000,-0724,0958,10913,028.2,045.4,0.390,732.3,01.19,0.508
2013-10-10 00:55:00,2692E-4,5C000000,-0724,0957,11025,028.2,045.3,0.390,732.3,01.19,0.508
2013-10-10 00:56:00,1341E-4,5C000000,-0724,0958,11033,028.2,045.3,0.390,732.3,01.19,0.508
2013-10-10 00:57:00,1875E-4,5C000000,-0724,0958,10978,028.2,045.4,0.390,732.2,01.19,0.508
2013-10-10 00:58:00,2347E-4,5C000000,-0724,0958,10906,028.2,045.4,0.390,732.3,01.19,0.508
2013-10-10 00:59:00,2341E-4,5C000000,-0724,0957,10938,028.2,045.4,0.390,732.3,01.19,0.508
2013-10-10 01:00:00,2008E-4,5C000000,-0724,0958,11016,028.2,045.3,0.390,732.3,01.19,0.508
2013-10-10 01:01:00,1887E-4,5C000000,-0724,0959,11031,028.2,045.4,0.390,732.4,01.19,0.508
2013-10-10 01:02:00,1752E-4,5C000000,-0724,0958,10869,028.2,045.4,0.390,732.3,01.19,0.508
2013-10-10 01:03:00,2241E-4,5C000000,-0724,0958,10976,028.2,045.4,0.389,732.3,01.19,0.508
2013-10-10 01:04:00,2791E-4,5C000000,-0724,0957,10990,028.2,045.4,0.390,732.4,01.19,0.508
2013-10-10 01:05:00,3151E-4,5C000000,-0724,0958,10826,028.2,045.4,0.390,732.4,01.19,0.508
2013-10-10 01:06:00,2230E-4,5C000000,-0724,0958,11012,028.2,045.3,0.390,732.2,01.19,0.508
2013-10-10 01:07:00,3447E-4,5C000000,-0724,0957,10945,028.2,045.4,0.390,732.3,01.19,0.508
2013-10-10 01:08:00,2846E-4,5C000000,-0724,0957,10944,028.2,045.4,0.390,732.4,01.19,0.508
2013-10-10 01:09:00,2532E-4,5C000000,-0724,0959,10910,028.2,045.4,0.390,732.4,01.19,0.508
2013-10-10 01:10:00,2255E-4,5C000000,-0724,0958,10817,028.2,045.3,0.390,732.0,01.19,0.508
2013-10-10 01:11:00,2519E-4,5C000000,-0724,0959,11052,028.2,045.3,0.390,732.2,01.19,0.508
2013-10-10 01:12:00,2368E-4,5C000000,-0724,0958,11082,028.2,045.4,0.390,732.4,01.19,0.508
2013-10-10 01:13:00,2257E-4,5C000000,-0724,0958,10952,028.2,045.4,0.390,732.5,01.19,0.508
2013-10-10 01:14:00,2107E-4,5C000000,-0724,0957,10915,028.2,045.4,0.390,732.4,01.19,0.508
2013-10-10 01:15:00,3641E-4,5C000000,-0724,0958,11057,028.2,045.3,0.390,732.2,01.19,0.508
2013-10-10 01:16:00,3280E-4,5C000000,-0724,0957,11088,028.2,045.4,0.390,732.3,01.19,0.508
2013-10-10 01:17:00,2553E-4,5C000000,-0724,0958,10893,028.2,045.3,0.390,732.3,01.19,0.508
2013-10-10 01:18:00,3006E-4,5C000000,-0724,0958,10811,028.2,045.3,0.390,732.3,01.19,0.508
2013-10-10 01:19:00,2587E-4,5C000000,-0724,0958,10968,028.2,045.3,0.390,732.4,01.19,0.508
2013-10-10 01:20:00,2888E-4,5C000000,-0724,0958,10744,028.2,045.3,0.390,732.4,01.19,0.508
2013-10-10 01:21:00,3242E-4,5C000000,-0724,0957,10980,028.2,045.3,0.390,732.4,01.19,0.508
2013-10-10 01:22:00,2839E-4,5C000000,-0724,0958,11083,028.2,045.3,0.390,732.4,01.19,0.508
2013-10-10 01:23:00,2415E-4,5C000000,-0724,0958,11014,028.2,045.4,0.390,732.3,01.19,0.508
2013-10-10 01:24:00,3476E-4,5C000000,-0724,0956,10889,028.2,045.3,0.389,732.4,01.19,0.508
2013-10-10 01:25:00,3187E-4,5C000000,-0724,0958,10970,028.2,045.3,0.390,732.3,01.19,0.508
2013-10-10 01:26:00,3489E-4,5C000000,-0724,0957,10972,028.2,045.4,0.390,732.4,01.19,0.508
2013-10-10 01:27:00,3161E-4,5C000000,-0724,0957,10933,028.2,045.4,0.390,732.4,01.19,0.508
2013-10-10 01:28:00,2695E-4,5C000000,-0724,0958,11043,028.2,045.4,0.390,732.5,01.19,0.508
2013-10-10 01:29:00,2269E-4,5C000000,-0724,0958,10879,028.2,045.4,0.389,732.4,01.19,0.508
2013-10-10 01:30:00,2502E-4,5C000000,-0724,0958,10976,028.2,045.4,0.390,732.4,01.19,0.508
2013-10-10 01:31:00,3074E-4,5C000000,-0724,0958,10891,028.2,045.4,0.390,732.4,01.19,0.508
2013-10-10 01:32:00,2326E-4,5C000000,-0724,0957,10997,028.2,045.4,0.390,732.5,01.19,0.508
2013-10-10 01:33:00,2824E-4,5C000000,-0724,0958,10962,028.2,045.4,0.390,732.5,01.19,0.508
2013-10-10 01:34:00,2827E-4,5C000000,-0724,0958,10907,028.2,045.4,0.390,732.3,01.19,0.508
2013-10-10 01:35:00,2959E-4,5C000000,-0724,0959,10912,028.2,045.4,0.390,732.5,01.19,0.508
2013-10-10 01:36:00,2752E-4,5C000000,-0724,0959,10816,028.2,045.4,0.390,732.5,01.19,0.508
2013-10-10 01:37:00,2919E-4,5C000000,-0724,0957,10770,028.2,045.4,0.390,732.5,01.19,0.508
2013-10-10 01:38:00,3085E-4,5C000000,-0724,0958,10992,028.2,045.3,0.390,732.5,01.19,0.508
2013-10-10 01:39:00,2885E-4,5C000000,-0724,0958,10903,028.2,045.4,0.390,732.6,01.19,0.508
2013-10-10 01:40:00,2859E-4,5C000000,-0724,0959,10885,028.2,045.3,0.390,732.6,01.19,0.508
2013-10-10 01:41:00,2278E-4,5C000000,-0724,0958,11017,028.2,045.3,0.390,732.6,01.19,0.508
2013-10-10 01:42:00,2446E-4,5C000000,-0724,0958,11069,028.2,045.3,0.390,732.6,01.19,0.508
2013-10-10 01:43:00,3190E-4,5C000000,-0724,0958,10953,028.2,045.4,0.390,732.5,01.19,0.508
2013-10-10 01:44:00,3786E-4,5C000000,-0724,0958,11054,028.2,045.4,0.390,732.5,01.19,0.508
2013-10-10 01:45:00,2981E-4,5C000000,-0724,0958,11034,028.2,045.4,0.390,732.6,01.19,0.508
2013-10-10 01:46:00,3620E-4,5C000000,-0724,0958,10956,028.2,045.3,0.390,732.6,01.19,0.508
2013-10-10 01:47:00,3619E-4,5C000000,-0724,0958,10840,028.2,045.3,0.390,732.5,01.19,0.508
2013-10-10 01:48:00,3302E-4,5C000000,-0724,0958,11096,028.2,045.4,0.390,732.6,01.19,0.508
2013-10-10 01:49:00,3047E-4,5C000000,-0724,0958,10991,028.2,045.4,0.390,732.6,01.19,0.508
2013-10-10 01:50:00,3235E-4,5C000000,-0724,0958,10945,028.2,045.4,0.390,732.6,01.19,0.508
2013-10-10 01:51:00,3144E-4,5C000000,-0724,0958,10919,028.2,045.4,0.390,732.6,01.19,0.508
2013-10-10 01:52:00,3317E-4,5C000000,-0724,0958,10855,028.2,045.4,0.390,732.7,01.19,0.508
2013-10-10 01:53:00,2711E-4,5C000000,-0724,0958,10981,028.2,045.4,0.390,732.6,01.19,0.508
2013-10-10 01:54:00,3521E-4,5C000000,-0724,0957,10854,028.2,045.4,0.390,732.7,01.19,0.508
2013-10-10 01:55:00,3249E-4,5C000000,-0724,0958,10954,028.2,045.4,0.390,732.7,01.19,0.508
2013-10-10 01:56:00,2555E-4,5C000000,-0724,0958,10929,028.2,045.4,0.390,732.5,01.19,0.508
2013-10-10 01:57:00,3232E-4,5C000000,-0724,0958,10890,028.2,045.4,0.390,732.6,01.19,0.508
2013-10-10 01:58:00,2745E-4,5C000000,-0724,0957,10885,028.2,045.3,0.390,732.7,01.19,0.508
2013-10-10 01:59:00,2388E-4,5C000000,-0724,0958,10856,028.2,045.3,0.390,732.7,01.19,0.508
2013-10-10 02:00:00,2591E-4,5C000000,-0724,0958,10655,028.2,045.3,0.390,732.6,01.19,0.508
2013-10-10 02:01:00,3052E-4,5C000000,-0724,0958,10822,028.2,045.4,0.390,732.7,01.19,0.508
2013-10-10 02:02:00,3459E-4,5C000000,-0724,0958,10956,028.2,045.4,0.390,732.6,01.19,0.508
2013-10-10 02:03:00,2182E-4,5C000000,-0724,0958,10945,028.2,045.3,0.390,732.7,01.19,0.508
2013-10-10 02:04:00,2671E-4,5C000000,-0724,0958,10667,028.2,045.3,0.390,732.7,01.19,0.508
2013-10-10 02:05:00,3070E-4,5C000000,-0724,0959,10873,028.2,045.4,0.390,732.7,01.19,0.508
2013-10-10 02:06:00,3034E-4,5C000000,-0724,0959,11021,028.2,045.3,0.390,732.7,01.19,0.508
2013-10-10 02:07:00,2322E-4,5C000000,-0724,0958,10988,028.2,045.4,0.390,732.6,01.19,0.508
2013-10-10 02:08:00,3502E-4,5C000000,-0724,0959,10869,028.2,045.4,0.390,732.6,01.19,0.508
2013-10-10 02:09:00,3309E-4,5C000000,-0724,0958,11104,028.2,045.4,0.390,732.7,01.19,0.508
2013-10-10 02:10:00,3019E-4,5C000000,-0724,0958,10997,028.2,045.4,0.390,732.7,01.19,0.508
2013-10-10 02:11:00,2911E-4,5C000000,-0724,0959,11016,028.2,045.3,0.390,732.6,01.19,0.508
2013-10-10 02:12:00,2956E-4,5C000000,-0724,0958,10926,028.2,045.4,0.390,732.6,01.19,0.508
2013-10-10 02:13:00,2929E-4,5C000000,-0724,0958,10828,028.2,045.4,0.390,732.6,01.19,0.508
2013-10-10 02:14:00,2351E-4,5C000000,-0724,0958,10971,028.2,045.4,0.390,732.6,01.19,0.508
2013-10-10 02:15:00,3740E-4,5C000000,-0724,0958,11015,028.2,045.4,0.390,732.6,01.19,0.508
2013-10-10 02:16:00,2646E-4,5C000000,-0724,0958,10936,028.2,045.4,0.390,732.6,01.19,0.508
2013-10-10 02:17:00,4023E-4,5C000000,-0724,0957,11006,028.2,045.4,0.390,732.6,01.19,0.508
2013-10-10 02:18:00,3243E-4,5C000000,-0724,0957,11046,028.2,045.4,0.390,732.6,01.19,0.508
2013-10-10 02:19:00,3193E-4,5C000000,-0724,0957,10868,028.2,045.3,0.390,732.6,01.19,0.508
2013-10-10 02:20:00,2831E-4,5C000000,-0724,0957,10881,028.2,045.4,0.390,732.7,01.19,0.508
2013-10-10 02:21:00,2748E-4,5C000000,-0724,0957,10995,028.2,045.3,0.390,732.7,01.19,0.508
2013-10-10 02:22:00,2359E-4,5C000000,-0724,0958,10938,028.2,045.4,0.390,732.7,01.19,0.508
2013-10-10 02:23:00,2235E-4,5C000000,-0724,0958,10916,028.2,045.4,0.390,732.8,01.19,0.508
2013-10-10 02:24:00,3668E-4,5C000000,-0724,0958,10945,028.3,045.3,0.390,732.7,01.19,0.508
2013-10-10 02:25:00,3057E-4,5C000000,-0724,0958,10985,028.2,045.4,0.390,732.7,01.19,0.508
2013-10-10 02:26:00,2994E-4,5C000000,-0724,0958,10763,028.3,045.3,0.390,732.8,01.19,0.508
2013-10-10 02:27:00,3112E-4,5C000000,-0724,0959,10973,028.2,045.3,0.390,732.7,01.19,0.508
2013-10-10 02:28:00,3492E-4,5C000000,-0724,0958,10935,028.3,045.3,0.390,732.7,01.19,0.508
2013-10-10 02:29:00,3387E-4,5C000000,-0724,0958,11022,028.2,045.4,0.390,732.8,01.19,0.508
2013-10-10 02:30:00,3632E-4,5C000000,-0724,0957,10886,028.3,045.4,0.390,732.8,01.19,0.508
2013-10-10 02:31:00,3255E-4,5C000000,-0724,0959,10945,028.3,045.4,0.390,732.8,01.19,0.508
2013-10-10 02:32:00,2671E-4,5C000000,-0724,0959,11044,028.3,045.3,0.390,732.8,01.19,0.508
2013-10-10 02:33:00,3118E-4,5C000000,-0724,0958,10830,028.3,045.3,0.390,732.8,01.19,0.508
2013-10-10 02:34:00,3653E-4,5C000000,-0724,0958,10963,028.3,045.4,0.390,732.7,01.19,0.508
2013-10-10 02:35:00,1875E-4,5C000000,-0724,0958,10946,028.3,045.4,0.390,732.8,01.19,0.508
2013-10-10 02:36:00,3425E-4,5C000000,-0724,0958,10852,028.3,045.4,0.390,732.8,01.19,0.508
2013-10-10 02:37:00,3250E-4,5C000000,-0724,0957,10942,028.3,045.4,0.390,732.8,01.19,0.508
2013-10-10 02:38:00,3858E-4,5C000000,-0724,0958,11012,028.3,045.4,0.390,732.9,01.19,0.508
2013-10-10 02:39:00,3003E-4,5C000000,-0724,0958,10999,028.3,045.4,0.390,732.8,01.19,0.508
2013-10-10 02:40:00,2224E-4,5C000000,-0724,0959,10924,028.3,045.4,0.390,732.9,01.19,0.508
2013-10-10 02:41:00,3630E-4,5C000000,-0724,0958,10888,028.3,045.4,0.390,732.8,01.19,0.508
2013-10-10 02:42:00,2408E-4,5C000000,-0724,0958,10946,028.3,045.4,0.390,732.9,01.19,0.508
2013-10-10 02:43:00,2524E-4,5C000000,-0724,0958,11021,028.3,045.4,0.390,732.9,01.19,0.508
2013-10-10 02:44:00,2265E-4,5C000000,-0724,0958,10931,028.3,045.3,0.390,732.9,01.19,0.508
2013-10-10 02:45:00,2942E-4,5C000000,-0724,0959,11044,028.3,045.4,0.390,732.9,01.19,0.508
2013-10-10 02:46:00,2825E-4,5C000000,-0724,0958,10929,028.3,045.4,0.390,733.0,01.19,0.508
2013-10-10 02:47:00,2767E-4,5C000000,-0724,0958,10999,028.4,045.4,0.390,732.9,01.19,0.508
2013-10-10 02:48:00,2603E-4,5C000000,-0724,0959,11081,028.3,045.4,0.390,732.9,01.19,0.508
2013-10-10 02:49:00,3090E-4,5C000000,-0724,0958,11033,028.4,045.4,0.390,732.9,01.19,0.508
2013-10-10 02:50:00,2808E-4,5C000000,-0724,0958,11015,028.3,045.4,0.390,733.0,01.19,0.508
2013-10-10 02:51:00,3223E-4,5C000000,-0724,0960,10998,028.4,045.4,0.390,733.0,01.19,0.508
2013-10-10 02:52:00,2229E-4,5C000000,-0724,0958,10991,028.3,045.4,0.390,733.0,01.19,0.508
2013-10-10 02:53:00,2693E-4,5C000000,-0724,0958,10967,028.4,045.3,0.390,733.0,01.19,0.508
2013-10-10 02:54:00,2978E-4,5C000000,-0724,0959,10870,028.3,045.4,0.390,733.0,01.19,0.508
2013-10-10 02:55:00,3397E-4,5C000000,-0724,0958,10992,028.3,045.4,0.390,733.1,01.19,0.508
2013-10-10 02:56:00,2255E-4,5C000000,-0724,0959,10880,028.4,045.3,0.390,733.1,01.19,0.508
2013-10-10 02:57:00,3083E-4,5C000000,-0724,0958,10895,028.4,045.4,0.390,733.0,01.19,0.508
2013-10-10 02:58:00,2559E-4,5C000000,-0724,0959,10899,028.4,045.4,0.390,733.1,01.19,0.508
2013-10-10 02:59:00,3735E-4,5C000000,-0724,0958,10888,028.4,045.4,0.390,733.1,01.19,0.508
2013-10-10 03:00:00,3181E-4,5C000000,-0724,0958,10863,028.4,045.4,0.390,733.1,01.19,0.508
2013-10-10 03:01:00,2721E-4,5C000000,-0724,0958,11059,028.4,045.4,0.390,733.1,01.19,0.508
2013-10-10 03:02:00,2550E-4,5C000000,-0724,0958,11096,028.4,045.4,0.390,733.1,01.19,0.508
2013-10-10 03:03:00,2453E-4,5C000000,-0724,0958,10954,028.4,045.4,0.390,733.1,01.19,0.508
2013-10-10 03:04:00,2426E-4,5C000000,-0724,0958,10927,028.4,045.4,0.390,733.1,01.19,0.508
2013-10-10 03:05:00,2701E-4,5C000000,-0724,0960,10961,028.4,045.4,0.389,733.1,01.19,0.508
2013-10-10 03:06:00,3025E-4,5C000000,-0724,0958,10896,028.4,045.4,0.390,733.0,01.19,0.508
2013-10-10 03:07:00,2467E-4,5C000000,-0724,0959,10764,028.4,045.4,0.390,733.1,01.19,0.508
2013-10-10 03:08:00,2937E-4,5C000000,-0724,0958,10948,028.4,045.4,0.389,733.1,01.19,0.508
2013-10-10 03:09:00,2324E-4,5C000000,-0724,0959,10970,028.4,045.4,0.390,733.0,01.19,0.508
2013-10-10 03:10:00,1673E-4,5C000000,-0724,0958,11034,028.4,045.4,0.390,733.1,01.19,0.508
2013-10-10 03:11:00,2664E-4,5C000000,-0724,0958,11006,028.4,045.4,0.390,733.1,01.19,0.508
2013-10-10 03:12:00,3657E-4,5C000000,-0724,0958,10884,028.5,045.4,0.390,733.1,01.19,0.508
2013-10-10 03:13:00,2908E-4,5C000000,-0724,0959,10945,028.4,045.4,0.390,733.0,01.19,0.508
2013-10-10 03:14:00,1456E-4,5C000000,-0724,0958,10908,028.5,045.4,0.390,733.1,01.19,0.508
2013-10-10 03:15:00,2286E-4,5C000000,-0724,0958,10832,028.4,045.4,0.390,733.1,01.19,0.508
2013-10-10 03:16:00,2203E-4,5C000000,-0724,0958,10691,028.5,045.4,0.389,733.1,01.19,0.508
2013-10-10 03:17:00,2921E-4,5C000000,-0724,0960,10956,028.5,045.4,0.390,733.1,01.19,0.508
2013-10-10 03:18:00,2894E-4,5C000000,-0724,0958,10940,028.5,045.4,0.390,733.0,01.19,0.508
2013-10-10 03:19:00,2445E-4,5C000000,-0724,0959,10935,028.5,045.4,0.389,733.0,01.19,0.508
2013-10-10 03:20:00,2557E-4,5C000000,-0724,0958,11003,028.5,045.4,0.390,733.1,01.19,0.508
2013-10-10 03:21:00,2538E-4,5C000000,-0724,0958,11063,028.5,045.4,0.390,733.0,01.19,0.508
2013-10-10 03:22:00,2014E-4,5C000000,-0724,0958,11084,028.5,045.4,0.389,733.1,01.19,0.508
2013-10-10 03:23:00,1591E-4,5C000000,-0724,0960,11027,028.5,045.4,0.390,733.1,01.19,0.508
2013-10-10 03:24:00,1939E-4,5C000000,-0724,0958,10845,028.5,045.3,0.390,733.1,01.19,0.508
2013-10-10 03:25:00,2329E-4,5C000000,-0724,0960,11043,028.5,045.3,0.389,733.1,01.19,0.508
2013-10-10 03:26:00,1750E-4,5C000000,-0724,0958,10776,028.5,045.4,0.390,733.2,01.19,0.508
2013-10-10 03:27:00,1853E-4,5C000000,-0724,0959,10802,028.5,045.4,0.390,733.2,01.19,0.508
2013-10-10 03:28:00,2599E-4,5C000000,-0724,0958,10909,028.5,045.4,0.389,733.2,01.19,0.508
2013-10-10 03:29:00,3694E-4,5C000000,-0724,0958,10867,028.5,045.4,0.390,733.2,01.19,0.508
2013-10-10 03:30:00,3096E-4,5C000000,-0724,0959,10903,028.5,045.4,0.390,733.2,01.19,0.508
2013-10-10 03:31:00,2673E-4,5C000000,-0724,0959,10962,028.5,045.4,0.389,733.2,01.19,0.508
2013-10-10 03:32:00,1741E-4,5C000000,-0724,0960,11026,028.5,045.4,0.390,733.2,01.19,0.508
2013-10-10 03:33:00,2214E-4,5C000000,-0724,0960,10862,028.5,045.4,0.390,733.2,01.19,0.508
2013-10-10 03:34:00,2546E-4,5C000000,-0724,0959,10888,028.5,045.4,0.389,733.2,01.19,0.508
2013-10-10 03:35:00,2837E-4,5C000000,-0724,0959,11017,028.5,045.4,0.390,733.2,01.19,0.508
2013-10-10 03:36:00,3101E-4,5C000000,-0724,0960,11098,028.5,045.4,0.390,733.3,01.19,0.508
2013-10-10 03:37:00,2553E-4,5C000000,-0724,0959,10897,028.5,045.4,0.389,733.2,01.19,0.508
2013-10-10 03:38:00,2313E-4,5C000000,-0724,0959,11018,028.5,045.4,0.390,733.3,01.19,0.508
2013-10-10 03:39:00,2208E-4,5C000000,-0724,0959,11003,028.6,045.4,0.390,733.2,01.19,0.508
2013-10-10 03:40:00,1981E-4,5C000000,-0724,0959,11050,028.5,045.4,0.389,733.2,01.19,0.508
2013-10-10 03:41:00,3295E-4,5C000000,-0724,0959,10923,028.6,045.4,0.390,733.3,01.19,0.508
2013-10-10 03:42:00,3050E-4,5C000000,-0724,0959,10790,028.5,045.4,0.390,733.1,01.19,0.508
2013-10-10 03:43:00,2917E-4,5C000000,-0724,0959,11000,028.5,045.3,0.389,733.2,01.19,0.508
2013-10-10 03:44:00,2869E-4,5C000000,-0724,0959,11071,028.6,045.4,0.390,733.2,01.19,0.508
2013-10-10 03:45:00,1913E-4,5C000000,-0724,0959,10800,028.5,045.4,0.390,733.3,01.19,0.508
2013-10-10 03:46:00,1818E-4,5C000000,-0724,0959,10907,028.6,045.4,0.389,733.3,01.19,0.508
2013-10-10 03:47:00,2302E-4,5C000000,-0724,0958,10997,028.5,045.4,0.390,733.3,01.19,0.508
2013-10-10 03:48:00,1989E-4,5C000000,-0724,0959,10931,028.5,045.4,0.390,733.3,01.19,0.508
2013-10-10 03:49:00,3240E-4,5C000000,-0724,0959,10993,028.6,045.4,0.389,733.2,01.19,0.508
2013-10-10 03:50:00,2723E-4,5C000000,-0724,0959,10800,028.6,045.3,0.389,733.2,01.19,0.508
2013-10-10 03:51:00,2222E-4,5C000000,-0724,0959,11030,028.6,045.4,0.390,733.3,01.19,0.508
2013-10-10 03:52:00,1903E-4,5C000000,-0724,0959,10936,028.6,045.4,0.390,733.2,01.19,0.508
2013-10-10 03:53:00,2146E-4,5C000000,-0724,0959,10872,028.6,045.4,0.389,733.2,01.19,0.508
2013-10-10 03:54:00,2297E-4,5C000000,-0724,0959,10884,028.6,045.4,0.390,733.2,01.19,0.508
2013-10-10 03:55:00,2522E-4,5C000000,-0724,0958,10971,028.6,045.4,0.390,733.2,01.19,0.508
2013-10-10 03:56:00,2204E-4,5C000000,-0724,0960,10853,028.6,045.4,0.389,733.3,01.19,0.508
2013-10-10 03:57:00,2853E-4,5C000000,-0724,0959,10977,028.6,045.4,0.390,733.3,01.19,0.508
2013-10-10 03:58:00,2231E-4,5C000000,-0724,0959,10921,028.6,045.4,0.390,733.2,01.19,0.508
2013-10-10 03:59:00,1799E-4,5C000000,-0724,0960,10969,028.6,045.4,0.389,733.1,01.19,0.508
2013-10-10 04:00:00,2619E-4,5C000000,-0724,0959,11047,028.6,045.4,0.389,733.2,01.19,0.508
2013-10-10 04:01:00,2364E-4,5C000000,-0724,0959,10983,028.6,045.3,0.390,733.2,01.19,0.508
2013-10-10 04:02:00,1774E-4,5C000000,-0724,0959,10955,028.6,045.4,0.389,733.2,01.19,0.508
2013-10-10 04:03:00,2325E-4,5C000000,-0724,0959,11042,028.6,045.4,0.389,733.2,01.19,0.508
2013-10-10 04:04:00,2818E-4,5C000000,-0724,0958,10780,028.6,045.4,0.390,733.2,01.19,0.508
2013-10-10 04:05:00,2231E-4,5C000000,-0724,0960,11025,028.6,045.4,0.389,733.2,01.19,0.508
2013-10-10 04:06:00,1960E-4,5C000000,-0724,0959,11030,028.6,045.4,0.389,733.2,01.19,0.508
2013-10-10 04:07:00,1147E-4,5C000000,-0724,0960,10919,028.6,045.4,0.390,733.2,01.19,0.508
2013-10-10 04:08:00,2912E-4,5C000000,-0724,0959,10962,028.6,045.4,0.389,733.2,01.19,0.508
2013-10-10 04:09:00,2395E-4,5C000000,-0724,0960,11044,028.6,045.4,0.389,733.2,01.19,0.508
2013-10-10 04:10:00,2436E-4,5C000000,-0724,0959,10871,028.6,045.4,0.390,733.3,01.19,0.508
2013-10-10 04:11:00,2631E-4,5C000000,-0724,0959,10874,028.6,045.4,0.389,733.2,01.19,0.508
2013-10-10 04:12:00,2190E-4,5C000000,-0724,0959,10827,028.6,045.4,0.389,733.2,01.19,0.508
2013-10-10 04:13:00,2316E-4,5C000000,-0724,0959,10844,028.6,045.4,0.389,733.2,01.19,0.508
2013-10-10 04:14:00,1869E-4,5C000000,-0724,0959,10972,028.6,045.4,0.390,733.2,01.19,0.508
2013-10-10 04:15:00,1859E-4,5C000000,-0724,0960,11028,028.7,045.4,0.389,733.2,01.19,0.508
2013-10-10 04:16:00,1741E-4,5C000000,-0724,0959,11049,028.7,045.4,0.389,733.2,01.19,0.508
2013-10-10 04:17:00,2400E-4,5C000000,-0724,0959,10907,028.6,045.4,0.389,733.2,01.19,0.508
2013-10-10 04:18:00,2453E-4,5C000000,-0724,0959,10898,028.7,045.4,0.390,733.2,01.19,0.508
2013-10-10 04:19:00,3091E-4,5C000000,-0724,0959,10875,028.6,045.4,0.389,733.2,01.19,0.508
2013-10-10 04:20:00,2356E-4,5C000000,-0724,0960,10920,028.7,045.4,0.389,733.2,01.19,0.508